Regional Weather Roundup
Issued by NWS State College, PA

Home | Current Version | Previous Version | Text Only | Print | Product List | Glossary Off
Versions: 1 2 3 4 5 6 7 8 9 10 11 12 13 14 15 16 17 18 19 20 21 22 23 24 25 26 27 28 29 30 31 32 33 34 35 36 37 38 39 40 41 42 43 44 45 46 47 48 49 50

031
ASUS41 KCTP 220110
RWRCTP

REGIONAL WEATHER ROUNDUP
NATIONAL WEATHER SERVICE STATE COLLEGE PA
800 PM EST TUE FEB 21 2017

Note: "fair" indicates few or no clouds below 12,000 feet with no
significant weather and/or obstructions to visibility.

* = STATION THAT DOES NOT REPORT PRECIPITATION /E.G. RAIN...SNOW...ETC/
    THUNDER OR FOG.

PAZ002>004-007>009-013>016-020>023-029>032-220200-
WESTERN PENNSYLVANIA

CITY           SKY/WX    TMP DP  RH WIND       PRES   REMARKS
ERIE           PTCLDY    46  43  89 SW3       29.98R
MEADVILLE      CLOUDY    58  41  53 VRB7      29.95F
FRANKLIN*      CLOUDY    55  39  54 S8        29.99S
NEW CASTLE     CLOUDY    61  42  49 CALM      29.98F
BEAVER COUNTY  MOCLDY    59  43  55 S5        29.99F
BUTLER*        CLOUDY    57  41  54 S5        30.00F
PITTSBURGH INT CLOUDY    61  44  53 S3        29.99F
PITTSBURGH     CLOUDY    63  40  42 SW5       30.00F
INDIANA*       PTCLDY    55  36  47 SE6       30.04F
LATROBE        CLEAR     57  37  47 CALM      30.03R
WASHINGTON CO* PTCLDY    54  43  66 CALM      30.02F
$$

PAZ004>006-010>012-017>019-024>028-033>037-041-042-045-046-049>053-220200-
CENTRAL PENNSYLVANIA

CITY           SKY/WX    TMP DP  RH WIND       PRES   REMARKS
BRADFORD       CLOUDY    46  29  51 SE8       30.00F
DUBOIS         CLOUDY    48  28  46 SE12      30.01F
CLEARFIELD       N/A    N/A N/A N/A MISG      30.06S
JOHNSTOWN      CLOUDY    47  33  58 S9        30.05S
ALTOONA        CLOUDY    49  34  56 S6        30.09S
STATE COLLEGE  CLOUDY    48  32  53 SW6       30.09F
WILLIAMSPORT   NOT AVBL
SELINSGROVE    NOT AVBL
FT INDIANTOWN  MOCLDY    42  27  55 CALM      30.15S
CAPITAL CITY   NOT AVBL
HARRISBURG     CLOUDY    46  34  61 S3        30.15R
YORK           NOT AVBL
$$

PAZ038>040-043-044-047-048-054-055-060>062-067>071-220200-
EASTERN PENNSYLVANIA

CITY           SKY/WX    TMP DP  RH WIND       PRES   REMARKS
SCRANTON       NOT AVBL
MOUNT POCONO   NOT AVBL
ALLENTOWN      NOT AVBL
QUAKERTOWN*    PTCLDY    43  30  61 SW3       30.18R
READING        NOT AVBL
LANCASTER      MOCLDY    42  36  79 SE6       30.16S
COATESVILLE    CLOUDY    41  34  75 SE8       30.18S
POTTSTOWN      NOT AVBL
BLUE BELL      CLOUDY    43  32  65 S5        30.18S
DOYLESTOWN     NOT AVBL
WILLOW GROVE   NOT AVBL
NORTH PHILA    NOT AVBL
PHILADELPHIA   CLOUDY    45  33  63 SE5       30.20S
$$




USA.gov is the U.S. government's official web portal to all federal, state and local government web resources and services.